Simultaneous Nadir Overpasses (SNOs) Predictions

Prediction of SNOs between METOP-C and LANDSAT-8 Satellite Orbit:

Table of predicted SNOs for the next 14.0 days since TLE Epoch: 2/13/2025
Index Date (METOP-C) Time (METOP-C) Lat,Lon (METOP-C) SZA (METOP-C ) Date (LANDSAT-8) Time (LANDSAT-8) Lat,Lon (LANDSAT-8) SZA (LANDSAT-8 ) Distance(km) Time Diff (sec)
1 02/13/2025 18:26:00 -81.13, 123.15 84.17 02/13/2025 18:26:31 -81.13, 123.09 84.17 1.01 31
2 02/13/2025 19:16:39 81.15, -68.78 95.91 02/13/2025 19:15:56 81.16, -68.82 95.89 0.77 43
3 02/16/2025 14:00:21 -81.12,-170.52 85.14 02/16/2025 14:00:46 -81.13,-170.46 85.13 1.05 25
4 02/16/2025 14:51:00 81.15, -2.50 94.93 02/16/2025 14:50:11 81.15, -2.40 94.93 1.88 49
5 02/19/2025 09:34:41 -81.13,-103.91 86.11 02/19/2025 09:35:00 -81.13,-103.94 86.10 0.50 19
6 02/19/2025 10:25:20 81.15, 64.06 93.96 02/19/2025 10:24:25 81.16, 64.10 93.95 1.00 55
7 02/22/2025 05:09:01 -81.12, -37.78 87.15 02/22/2025 05:09:13 -81.12, -37.69 87.13 1.63 12
8 02/22/2025 05:59:40 81.14, 130.13 92.92 02/22/2025 05:58:38 81.14, 130.32 92.91 3.15 62
9 02/25/2025 00:43:20 -81.13, 29.00 88.13 02/25/2025 00:43:25 -81.14, 29.01 88.12 0.43 5



Historial Predications of SNOs between METOP-C and LANDSAT-8
